Powrót do katalogu

NEONSAT-1

AktywnyNaukaSSO
NORAD 59587·PAYLOAD·🇰🇷 South Korea

Wystrzelony Apr 23, 2024 z Rocket Lab Launch Complex 1

Loading…

Następne Przeloty (najbliższe 24 godziny)

TLE

ŚwieżeSource: Space-Track

Epoka: Sep 14, 2026, 21:39 UTC

1 59587U 24077A   26257.90213553  .00012558  00000-0  31103-3 0  9996
2 59587  97.3445 342.2230 0009044  73.2633 286.9605 15.40510712133532

Śledź NEONSAT-1 w czasie rzeczywistym z AllMySat

Download on the App Store